Total_Precipitation_Accumulation
0.00 0.01 0.01 0.02 0.02 0.03 0.05 0.08 0.17 0.26 0.22 0.31 0.39 0.49 0.64 0.80 1.02 1.04 1.13 1.23 1.48 1.78 2.17 2.84 3.53 4.10 4.77 5.54 6.12 5.99 5.39 4.92 4.38 3.91 3.38 3.31 3.12 2.81 2.52 2.24 1.98 1.94 1.88 1.72
0.01 0.03 0.03 0.03 0.03 0.04 0.06 0.09 0.15 0.21 0.18 0.19 0.32 0.59 0.74 0.81 0.97 0.93 0.94 1.00 1.20 1.55 2.17 2.92 3.52 3.73 3.74 4.03 4.28 3.78 3.58 3.59 3.27 2.99 2.92 2.85 2.72 2.42 2.20 2.05 1.99 1.64 1.64 1.63
0.02 0.04 0.03 0.03 0.03 0.05 0.09 0.11 0.12 0.19 0.19 0.25 0.40 0.75 0.97 0.89 0.89 0.77 0.74 0.96 1.43 1.86 2.29 2.80 2.97 2.96 2.84 2.83 2.81 2.58 2.52 2.85 2.86 2.81 2.77 2.75 2.73 2.59 2.34 2.03 1.98 1.65 1.48 1.50
0.01 0.03 0.03 0.04 0.05 0.05 0.08 0.07 0.05 0.07 0.14 0.37 0.55 0.97 1.14 1.06 1.02 0.77 0.81 1.18 1.69 2.01 2.27 2.24 1.83 1.70 1.85 1.94 2.05 2.30 2.38 2.52 2.47 2.56 2.41 2.23 2.04 1.92 1.84 1.80 1.86 1.86 1.63 1.51
0.03 0.03 0.04 0.05 0.05 0.04 0.05 0.05 0.04 0.07 0.17 0.42 0.71 1.14 1.35 1.15 0.97 0.76 0.75 0.82 1.20 1.36 1.32 1.15 0.98 1.02 1.26 1.53 1.78 2.18 2.27 2.31 2.25 2.22 2.26 2.29 2.13 2.09 1.99 1.94 2.11 2.09 2.07 1.84
0.04 0.04 0.04 0.04 0.03 0.04 0.05 0.06 0.12 0.22 0.40 0.87 0.94 1.03 1.30 1.12 0.90 0.76 0.63 0.59 0.81 0.84 0.68 0.72 0.78 0.96 1.21 1.39 1.50 1.76 1.91 2.08 2.14 2.19 2.28 2.24 2.20 2.26 2.11 1.99 1.93 1.88 1.93 1.86
0.09 0.09 0.06 0.04 0.04 0.04 0.04 0.07 0.28 0.63 0.93 1.07 0.80 0.94 1.24 0.87 0.62 0.54 0.44 0.37 0.41 0.49 0.56 0.72 0.80 0.98 1.08 1.19 1.23 1.38 1.47 1.66 1.85 1.97 2.05 2.09 2.15 2.21 2.07 1.98 1.87 1.81 1.69 1.64
0.15 0.14 0.09 0.04 0.05 0.05 0.05 0.05 0.13 0.25 0.37 0.58 0.75 1.13 1.22 0.83 0.52 0.38 0.32 0.32 0.32 0.39 0.46 0.51 0.60 0.66 0.77 0.92 1.16 1.35 1.33 1.34 1.40 1.48 1.66 1.82 1.86 1.92 1.89 1.98 1.80 1.68 1.57 1.56
0.05 0.04 0.05 0.04 0.05 0.04 0.05 0.04 0.05 0.07 0.11 0.36 0.80 1.07 0.99 0.69 0.51 0.41 0.41 0.43 0.42 0.44 0.49 0.43 0.44 0.56 0.65 0.70 0.83 1.05 1.11 1.14 1.19 1.25 1.38 1.46 1.51 1.64 1.83 1.80 1.62 1.47 1.50 1.52
0.03 0.02 0.03 0.03 0.04 0.04 0.05 0.05 0.05 0.07 0.13 0.28 0.63 1.13 1.29 0.95 0.69 0.55 0.59 0.54 0.47 0.43 0.43 0.49 0.50 0.54 0.62 0.63 0.75 0.92 1.07 1.14 1.16 1.17 1.21 1.16 1.31 1.42 1.58 1.61 1.56 1.47 1.40 1.50
0.02 0.02 0.03 0.03 0.05 0.06 0.06 0.06 0.07 0.09 0.10 0.18 0.46 0.75 0.75 0.80 0.67 0.50 0.54 0.54 0.49 0.42 0.43 0.54 0.53 0.54 0.52 0.52 0.62 0.76 0.95 1.06 1.01 1.05 1.09 1.17 1.26 1.43 1.49 1.45 1.47 1.46 1.45 1.52
0.02 0.02 0.02 0.04 0.07 0.07 0.08 0.09 0.10 0.11 0.12 0.14 0.24 0.41 0.46 0.51 0.60 0.71 0.63 0.62 0.62 0.57 0.48 0.54 0.56 0.53 0.45 0.50 0.60 0.69 0.86 0.99 1.05 1.05 1.12 1.23 1.28 1.36 1.43 1.38 1.45 1.58 1.59 1.64
0.03 0.03 0.04 0.12 0.16 0.15 0.12 0.11 0.11 0.11 0.12 0.12 0.24 0.41 0.41 0.37 0.43 0.53 0.60 0.68 0.64 0.53 0.52 0.54 0.65 0.60 0.51 0.52 0.59 0.72 0.97 1.18 1.34 1.36 1.31 1.27 1.23 1.28 1.40 1.44 1.48 1.57 1.68 1.74
0.03 0.03 0.04 0.09 0.18 0.22 0.21 0.17 0.14 0.11 0.10 0.10 0.15 0.30 0.33 0.46 0.56 0.53 0.59 0.65 0.59 0.45 0.47 0.58 0.69 0.74 0.79 0.77 0.79 0.93 1.11 1.17 1.29 1.25 1.21 1.25 1.27 1.38 1.52 1.56 1.58 1.62 1.62 1.66
0.03 0.02 0.03 0.02 0.06 0.13 0.21 0.19 0.14 0.10 0.07 0.09 0.11 0.18 0.31 0.51 0.65 0.70 0.70 0.68 0.62 0.56 0.61 0.66 0.75 0.82 0.89 0.95 0.94 0.94 1.02 1.04 1.16 1.44 1.54 1.61 1.58 1.60 1.71 1.78 1.74 1.78 1.77 1.73
0.05 0.04 0.04 0.04 0.06 0.08 0.12 0.16 0.13 0.09 0.09 0.09 0.11 0.21 0.35 0.56 0.63 0.71 0.68 0.64 0.63 0.69 0.71 0.77 0.82 0.87 0.90 0.94 1.04 1.10 1.12 1.15 1.33 1.74 1.97 2.06 2.05 2.06 2.08 2.11 2.11 2.14 2.10 2.21
0.12 0.10 0.08 0.06 0.08 0.10 0.15 0.14 0.13 0.11 0.11 0.12 0.18 0.30 0.40 0.55 0.71 0.81 0.73 0.61 0.59 0.61 0.67 0.74 0.86 0.97 0.96 0.95 1.01 1.11 1.24 1.32 1.46 1.72 1.90 1.99 2.06 2.13 2.24 2.29 2.34 2.36 2.39 2.40
0.20 0.21 0.17 0.12 0.13 0.20 0.19 0.21 0.21 0.18 0.20 0.24 0.36 0.48 0.53 0.56 0.66 0.70 0.61 0.59 0.63 0.65 0.75 0.85 0.87 0.98 1.06 1.11 1.20 1.36 1.54 1.72 1.79 1.91 2.10 2.21 2.18 2.19 2.25 2.26 2.20 2.22 2.34 2.37
0.25 0.28 0.25 0.23 0.23 0.22 0.25 0.31 0.30 0.30 0.40 0.47 0.60 0.73 0.80 0.78 0.74 0.83 0.76 0.71 0.72 0.81 0.90 1.07 1.21 1.20 1.26 1.39 1.51 1.60 1.80 1.96 2.03 2.04 2.22 2.35 2.45 2.52 2.43 2.31 2.32 2.35 2.36 2.20
0.30 0.34 0.40 0.35 0.39 0.41 0.37 0.43 0.41 0.44 0.75 0.74 0.82 0.94 1.01 1.06 1.28 1.26 1.00 0.98 0.87 0.85 0.97 1.07 1.28 1.41 1.43 1.59 1.70 1.74 1.83 1.94 2.04 2.02 2.10 2.26 2.36 2.54 2.66 2.59 2.58 2.52 2.41 2.26
0.44 0.48 0.45 0.46 0.51 0.51 0.47 0.45 0.50 0.90 1.26 1.09 1.05 1.11 1.19 1.29 1.31 1.20 1.05 1.10 1.12 0.99 0.96 1.00 1.09 1.25 1.35 1.43 1.52 1.68 1.77 1.77 1.86 1.89 1.88 2.03 2.25 2.42 2.55 2.68 2.69 2.69 2.59 2.45
0.67 0.70 0.65 0.62 0.81 0.92 0.64 0.55 0.83 1.14 1.15 1.28 1.20 1.20 1.29 1.34 1.35 1.32 1.25 1.21 1.16 1.07 1.00 1.03 1.09 1.17 1.26 1.40 1.61 1.78 1.83 1.81 1.81 1.86 1.94 2.06 2.25 2.35 2.37 2.42 2.48 2.58 2.55 2.50
0.90 0.96 0.95 0.97 1.14 1.05 0.77 0.80 0.89 0.93 1.10 1.20 1.23 1.25 1.29 1.31 1.28 1.19 1.10 1.09 1.16 1.08 1.07 1.04 1.09 1.23 1.41 1.58 1.78 1.98 1.98 1.99 2.00 2.03 2.08 2.14 2.24 2.32 2.37 2.35 2.34 2.33 2.27 2.16
1.01 0.87 1.05 1.30 1.46 1.25 1.04 0.96 0.99 1.07 1.19 1.29 1.39 1.47 1.37 1.23 1.15 1.14 1.11 1.08 1.16 1.16 1.11 1.09 1.10 1.18 1.37 1.50 1.60 1.79 1.90 1.93 2.06 2.02 1.94 1.90 1.91 1.96 2.03 2.08 2.10 2.10 2.03 1.97
1.10 1.11 1.27 1.65 1.88 1.74 1.50 1.25 1.19 1.27 1.48 1.67 1.67 1.59 1.50 1.40 1.35 1.40 1.36 1.22 1.14 1.13 1.16 1.16 1.19 1.25 1.31 1.37 1.41 1.50 1.64 1.76 1.96 2.06 2.01 1.99 1.96 1.92 1.94 2.01 2.08 1.95 1.88 1.89
1.06 1.32 1.61 1.92 1.90 1.99 1.88 1.51 1.42 1.46 1.60 1.71 1.67 1.69 1.71 1.65 1.55 1.40 1.33 1.26 1.21 1.14 1.16 1.23 1.29 1.33 1.32 1.33 1.42 1.53 1.66 1.85 2.06 2.08 1.98 1.99 2.04 2.06 2.05 2.04 2.09 2.14 1.95 1.88